Regional Weather Roundup
Issued by NWS

Home | Current Version | Previous Version | Text Only | Print | Product List | Glossary Off
Versions: 1 2 3 4 5 6 7 8 9 10 11 12 13 14 15 16 17 18 19 20 21 22 23 24 25 26 27 28 29 30 31 32 33 34 35 36 37 38 39 40 41 42 43 44 45 46 47 48 49 50

000
ASUS43 KMPX 200310
RWRMN
WEATHER ROUNDUP FOR MINNESOTA
NATIONAL WEATHER SERVICE TWIN CITIES/CHANHASSEN MN
1000 PM CDT TUE AUG 19 2014


NOTE: "FAIR" INDICATES FEW OR NO CLOUDS BELOW 12,000 FEET WITH NO
SIGNIFICANT WEATHER AND/OR OBSTRUCTIONS TO VISIBILITY. N/A MEANS
CURRENT SKY AND/OR WEATHER CONDITIONS ARE NOT AVAILABLE.

MNZ060>063-068>070-200400-
   Twin Cities Metro

CITY           SKY/WX    TMP DP  RH WIND       PRES   REMARKS
TWIN CITIES    PTCLDY    73  64  73 CALM      29.78R
ST PAUL        PTCLDY    68  67  96 CALM      29.78R
CRYSTAL        PTCLDY    71  65  81 CALM      29.77R
BLAINE         CLEAR     66  66 100 CALM      29.78S
LAKEVILLE      PTCLDY    66  64  94 CALM      29.78S
EDEN PRAIRIE   PTCLDY    70  66  87 CALM      29.77R
SOUTH ST PAUL  CLEAR     70  68  93 CALM      29.78R
LAKE ELMO      FOG       64  64 100 CALM      29.79S VSB 1/4
$$
MNZ001>005-007-008-013>017-022>024-027-028-200400-
   Northwest Minnesota

CITY           SKY/WX    TMP DP  RH WIND       PRES   REMARKS
BEMIDJI        CLEAR     61  59  94 E3        29.81R
HALLOCK        CLEAR     68  64  88 SE6       29.75S
ROSEAU         CLEAR     66  61  82 E7        29.79S
WARROAD        CLEAR     66  63  88 SE5       29.80S
THIEF RVR FALL CLEAR     66  61  82 E6        29.79R
CROOKSTON      CLEAR     72  63  73 SE5       29.78R
FOSSTON        CLEAR     61  55  82 CALM      29.81R
DETROIT LAKES  CLEAR     70  64  83 CALM      29.81S
MOORHEAD       CLEAR     72  70  94 SE3       29.78R
PARK RAPIDS    CLEAR     65  61  87 CALM      29.81R
MAHNOMEN       FAIR      67  63  87 CALM      29.79R
$$
MNZ006-009>011-018-025>026-200400-
   North Central Minnesota

CITY           SKY/WX    TMP DP  RH WIND       PRES   REMARKS
BAUDETTE       CLEAR     63  61  93 CALM      29.80R
FLAG ISLAND    CLEAR     68  63  83 CALM      29.79R
INTL FALLS     CLEAR     54  54 100 CALM      29.81R
WASKISH        CLEAR     61  59  94 CALM      29.81R FOG
BIG FORK       CLEAR     57  55  94 CALM      29.82S
LONGVILLE      CLEAR     61  61 100 CALM      29.81R
GRAND RAPIDS   CLEAR     61  57  88 CALM      29.82R
CRANE LAKE     CLEAR     55  55 100 CALM      29.83S
ORR            MOCLDY    61  57  88 CALM      29.80S
COOK           CLEAR     59  59 100 CALM      29.83R
WALKER         FAIR      62  61  97 CALM      29.81R
$$
MNZ012-019>021-037-200400-
   Northeast Minnesota

CITY           SKY/WX    TMP DP  RH WIND       PRES   REMARKS
DULUTH         CLOUDY    65  60  84 N5        29.81R
ELY            CLOUDY    63  61  94 CALM      29.82R
HIBBING        CLOUDY    62  59  90 CALM      29.82R
EVELETH        CLOUDY    63  59  88 CALM      29.83S
DULUTH HARBOR  CLOUDY    64  61  88 N6        29.80S
TWO HARBORS    CLOUDY    61  55  82 CALM      29.79S
SILVER BAY     CLOUDY    59  59 100 CALM      29.80R FOG
GRAND MARAIS     N/A     61  59  93 CALM      29.80R
G MARAIS ARPRT CLOUDY    57  54  88 N3        29.83S
$$
MNZ029>031-032-039>041-046>048-054>057-064-200400-
   West Central Minnesota

CITY           SKY/WX    TMP DP  RH WIND       PRES   REMARKS
FERGUS FALLS   CLEAR     72  61  68 CALM      29.79R
WHEATON        PTCLDY    64  63  94 SE6       29.80S
MORRIS         CLEAR     68  64  88 CALM      29.79R
ALEXANDRIA     CLEAR     68  64  87 CALM      29.82R
ELBOW LAKE     FAIR      70  66  86 E3        29.79R
WADENA         CLEAR     64  63  94 CALM      29.80S
GLENWOOD       CLEAR     70  64  83 MISG      29.82R
APPLETON       CLEAR     70  66  88 CALM      29.79R
BENSON         CLEAR     66  64  94 CALM      29.80R
ORTONVILLE     CLEAR     72  64  78 E5        29.79S
MADISON        CLEAR     73  68  83 CALM      29.80R
WILLMAR        FAIR      70  64  83 CALM      29.81R
$$
MNZ033>034-036-042>043-049>051-058-059-200400-
   Central Minnesota

CITY           SKY/WX    TMP DP  RH WIND       PRES   REMARKS
ST CLOUD       CLEAR     70  65  84 CALM      29.79R
SAUK CENTRE    FAIR      65  62  89 CALM      29.81R
PAYNESVILLE    CLEAR     63  62  95 CALM      29.81R
AITKIN         CLOUDY    64  59  82 CALM      29.80R
PINE RIVER     CLEAR     63  63 100 CALM      29.84S
BRAINERD       CLEAR     64  62  93 CALM      29.81R
STAPLES        PTCLDY    66  63  88 CALM      29.81R
LONG PRAIRIE   FAIR      63  61  94 CALM      29.81R
LITTLE FALLS   CLEAR     64  61  88 CALM      29.80S
LITCHFIELD     CLEAR     72  66  83 CALM      29.81R
BUFFALO        CLEAR     69  64  82 CALM      29.80R
MAPLE LAKE     CLEAR     68  66  93 CALM      29.80R
$$
MNZ037-044-045-052-053-200400-
   East Central Minnesota

CITY           SKY/WX    TMP DP  RH WIND       PRES   REMARKS
PRINCETON      CLOUDY    70  66  88 CALM      29.79S
MORA           MOCLDY    64  63  94 CALM      29.81R
CAMBRIDGE      PTCLDY    70  61  73 CALM      29.77S
RUSH CITY      CLOUDY    68  64  85 NE3       29.80R
MOOSE LAKE     CLOUDY    64  61  88 CALM      29.80R
HINCKLEY       CLOUDY    64  63  94 CALM      29.80R
CLOQUET        CLEAR     61  57  88 CALM      29.81S
MCGREGOR       PTCLDY    64  61  88 CALM      29.81R
$$
MNZ071>073-080-081-089-090-097-098-200400-
   Southwest Minnesota

CITY           SKY/WX    TMP DP  RH WIND       PRES   REMARKS
MONTEVIDEO     CLEAR     70  64  83 CALM      29.80R
GRANITE FALLS  CLEAR     67  65  94 CALM      29.81R
CANBY          CLEAR     69  67  92 CALM      29.82R
MARSHALL       CLEAR     70  64  83 CALM      29.80R
REDWOOD FALLS  CLEAR     73  65  75 N3        29.79R
OLIVIA         CLEAR     70  64  83 CALM      29.80R
PIPESTONE      CLEAR     70  64  83 SW3       29.84R
WINDOM         CLEAR     70  64  83 CALM      29.82R
WORTHINGTON    CLEAR     68  10  10 SW3       29.84R
JACKSON        CLEAR     68  63  83 CALM      29.84R
TRACY          CLEAR     71  65  81 CALM      29.82R
SLAYTON        CLEAR     70  65  83 CALM      29.84R
$$
MNZ065>067-074>077-082>085-091>093-200400-
   South Central Minnesota

CITY           SKY/WX    TMP DP  RH WIND       PRES   REMARKS
MANKATO        CLEAR     72  63  73 N3        29.79S
NEW ULM        CLEAR     68  66  94 W3        29.80R
ST JAMES       CLEAR     68  63  83 CALM      29.81R
FAIRMONT       CLEAR     70  63  78 CALM      29.81S
GLENCOE        CLEAR     69  63  79 CALM      29.79R
FARIBAULT      PTCLDY    70  63  78 CALM      29.80R
OWATONNA       PTCLDY    66  64  94 CALM      29.80S
WASECA         CLEAR     63  59  88 CALM      29.82R
ALBERT LEA     CLEAR     68  66  94 CALM      29.80S
$$
MNZ078>079-086>088-094>096-200400-
   Southeast Minnesota

CITY           SKY/WX    TMP DP  RH WIND       PRES   REMARKS
ROCHESTER      MOCLDY    68  64  87 W6        29.81R
RED WING       CLEAR     68  64  88 N3        29.77R
STANTON        PTCLDY    69  65  86 CALM      29.77S
DODGE CENTER   PTCLDY    66  64  94 SW7       29.81R
WINONA         MOCLDY    70  64  83 CALM      29.78R
AUSTIN         CLEAR     68  64  88 CALM      29.81R
PRESTON        CLEAR     70  66  89 W3        29.81S
$$
ABBREVIATIONS USED IN REMARKS
   TC - TEMPERATURES IN CELSIUS
  WCI - WIND CHILL INDEX
   HX - HEAT INDEX
  VSB - VISIBILITY
$$



USA.gov is the U.S. government's official web portal to all federal, state and local government web resources and services.